Regional Weather Roundup
Issued by NWS

Home | Current Version | Previous Version | Text Only | Print | Product List | Glossary On
Versions: 1 2 3 4 5 6 7 8 9 10 11 12 13 14 15 16 17 18 19 20 21 22 23 24 25 26 27 28 29 30 31 32 33 34 35 36 37 38 39 40 41 42 43 44 45 46 47 48 49 50
000
ASUS43 KMPX 201801
RWRMN
WEATHER ROUNDUP FOR MINNESOTA
NATIONAL WEATHER SERVICE TWIN CITIES/CHANHASSEN MN
1200 PM CST FRI JAN 20 2017


NOTE: "FAIR" INDICATES FEW OR NO CLOUDS BELOW 12,000 FEET WITH NO
SIGNIFICANT WEATHER AND/OR OBSTRUCTIONS TO VISIBILITY. N/A MEANS
CURRENT SKY AND/OR WEATHER CONDITIONS ARE NOT AVAILABLE.

MNZ060>063-068>070-201900-
   Twin Cities Metro

CITY           SKY/WX    TMP DP  RH WIND       PRES   REMARKS
TWIN CITIES    CLOUDY    36  34  92 S7        29.59F
6HR MIN TEMP:  34; 6HR MAX TEMP:  36; 6HR PCP: TRACE;

ST PAUL        CLOUDY    36  36 100 SE8       29.61F FOG
CRYSTAL        CLOUDY    36  33  89 SE6       29.58F FOG
BLAINE         CLOUDY    37  37 100 SE7       29.59F FOG
LAKEVILLE      CLOUDY    34  34 100 S7        29.58F FOG     WCI  28
EDEN PRAIRIE   FOG       36  35  96 SE9       29.57F VSB 1
6HR MIN TEMP:  35; 6HR MAX TEMP:  36;

SOUTH ST PAUL  CLOUDY    37  36  99 SE5       29.59F FOG
LAKE ELMO      CLOUDY    36  36 100 S7        29.61F FOG
$$
MNZ001>005-007-008-013>017-022>024-027-028-201900-
   Northwest Minnesota

CITY           SKY/WX    TMP DP  RH WIND       PRES   REMARKS
BEMIDJI        CLOUDY    34  33  97 SE8       29.53F FOG     WCI  27
HALLOCK        CLOUDY    36  36 100 SE10      29.50F FOG
ROSEAU         CLOUDY    36  30  80 E7        29.52F HAZE
WARROAD        CLOUDY    36  32  87 E7        29.53F FOG
THIEF RVR FALL CLOUDY    36  33  89 SE9       29.51F
CROOKSTON      CLOUDY    34  34 100 S6        29.51F WCI  29
FOSSTON        CLOUDY    36  36 100 SE7       29.51S
DETROIT LAKES  CLOUDY    34  34 100 SE12      29.51F FOG     WCI  25
MOORHEAD       FOG       34  34 100 SE8       29.51F VSB 1   WCI  27
PARK RAPIDS    FOG       35  32  88 SE8       29.52F VSB 1/2 WCI  29
MAHNOMEN       CLOUDY    36  33  92 SE10      29.51S
$$
MNZ006-009>011-018-025>026-201900-
   North Central Minnesota

CITY           SKY/WX    TMP DP  RH WIND       PRES   REMARKS
BAUDETTE       CLOUDY    36  34  92 SE8       29.54F FOG
FLAG ISLAND    CLOUDY    36  34  93 SE5       29.54F FOG
INTL FALLS     CLOUDY    38  34  85 SE7       29.58F
6HR MIN TEMP:  33; 6HR MAX TEMP:  38;

WASKISH        CLOUDY    37  36  93 SE10      29.54F
BIG FORK       CLOUDY    37  34  87 SE7       29.57F FOG
LONGVILLE      CLOUDY    36  36 100 SE5       29.55S
GRAND RAPIDS   LGT RAIN  36  35  96 E7        29.58F FOG
CRANE LAKE     CLOUDY    37  34  87 CALM      29.63F
ORR            CLOUDY    37  32  81 CALM      29.57F
COOK           CLOUDY    37  34  87 SE5       29.60F
WALKER         CLOUDY    33  33  99 SE5       29.54F FOG     WCI  29
$$
MNZ012-019>021-037-201900-
   Northeast Minnesota

CITY           SKY/WX    TMP DP  RH WIND       PRES   REMARKS
DULUTH         LGT RAIN  35  34  96 E10       29.59F FOG     WCI  27
6HR MIN TEMP:  33; 6HR MAX TEMP:  35; 6HR PCP: TRACE;

ELY            PTSUNNY   36  36 100 E3        29.62F
HIBBING        CLOUDY    33  33 100 SE10      29.59F FOG     WCI  25
EVELETH        CLOUDY    37  36  99 E3        29.61F FOG
DULUTH HARBOR  LGT RAIN  34  34 100 CALM      29.63F VSB 1/4
TWO HARBORS    CLOUDY    37  34  87 NE5       29.62S HAZE
SILVER BAY     CLOUDY    36  36 100 CALM      29.63F FOG
GRAND MARAIS     N/A     35  33  92 NE9       29.68F WCI  28
G MARAIS ARPRT CLOUDY    34  30  86 CALM      29.64F FOG
$$
MNZ029>031-032-039>041-046>048-054>057-064-201900-
   West Central Minnesota

CITY           SKY/WX    TMP DP  RH WIND       PRES   REMARKS
FERGUS FALLS   CLOUDY    34  34 100 SE12      29.55F FOG     WCI  25
WHEATON        CLOUDY    41  41 100 E12       29.51F FOG
MORRIS         FOG       34  34 100 SE12      29.51F VSB 3/4 WCI  25
ALEXANDRIA     CLOUDY    33  33 100 SE13      29.53F FOG     WCI  24
ELBOW LAKE     CLOUDY    33  33 100 E10       29.53S FOG     WCI  25
WADENA         FOG       34  34 100 SE8       29.53S VSB 1/2 WCI  27
GLENWOOD       FOG       34  34 100 E10       29.53F VSB 1/2 WCI  26
APPLETON       CLOUDY    36  36 100 SE7       29.51F FOG
BENSON         CLOUDY    36  34  93 S7          N/A
ORTONVILLE     CLOUDY    34  32  93 SE12      29.49F FOG     WCI  25
MADISON        CLOUDY    37  37 100 SE12      29.50F FOG
WILLMAR        FOG       34  34 100 CALM      29.56F VSB 1/4
$$
MNZ033>034-036-042>043-049>051-058-059-201900-
   Central Minnesota

CITY           SKY/WX    TMP DP  RH WIND       PRES   REMARKS
ST CLOUD       FOG       34  34 100 SE8       29.56F VSB 1/2 WCI  27
6HR MIN TEMP:  34; 6HR MAX TEMP:  35;

SAUK CENTRE    CLOUDY    33  33 100 SE9       29.55F FOG     WCI  25
PAYNESVILLE    FOG       34  34 100 SE6       29.57S VSB 1/2 WCI  29
AITKIN         MIX PCPN  37  34  87 SE6       29.55F
PINE RIVER     CLOUDY    36  36 100 SE8       29.59F FOG
BRAINERD       CLOUDY    35  34  96 SE8       29.56F WCI  29
STAPLES        CLOUDY    34  34 100 SE7       29.54F FOG     WCI  28
LONG PRAIRIE   SNOW      32  32 100 E7        29.56S VSB 1/4 WCI  26
LITTLE FALLS   FOG       34  32  93 SE7       29.57S VSB 3/4 WCI  28
LITCHFIELD     FOG       36  36 100 SE5       29.57F VSB 1/4
BUFFALO        CLOUDY    35  34  94 SE6       29.58F FOG     WCI  30
MAPLE LAKE     FOG       36  36 100 MISG      29.58F VSB 3/4
HUTCHINSON     FOG       35  35 100 SE6       29.58S VSB 1/2 WCI  30
$$
MNZ037-044-045-052-053-201900-
   East Central Minnesota

CITY           SKY/WX    TMP DP  RH WIND       PRES   REMARKS
PRINCETON      CLOUDY    37  36  93 SE7       29.58F FOG
MORA           CLOUDY    34  34 100 SE6       29.60F FOG     WCI  29
CAMBRIDGE      CLOUDY    37  36  93 SE5       29.57F FOG
RUSH CITY      CLOUDY    36  34  93 SE6       29.59F
MOOSE LAKE     LGT RAIN  36  34  93 SE3       29.57F
HINCKLEY       CLOUDY    36  36 100 E5        29.59F
CLOQUET        DRZL/FOG  36  34  93 E8        29.59F VSB 1
MCGREGOR       CLOUDY    36  34  93 SE8       29.58F
$$
MNZ071>073-080-081-089-090-097-098-201900-
   Southwest Minnesota

CITY           SKY/WX    TMP DP  RH WIND       PRES   REMARKS
MONTEVIDEO     CLOUDY    36  36 100 S9        29.54F FOG
GRANITE FALLS  CLOUDY    37  36  97 SE9       29.54F FOG
CANBY          CLOUDY    37  37  99 E10       29.49F FOG
MARSHALL       CLOUDY    37  36  96 SE13      29.51F
REDWOOD FALLS  CLOUDY    35  33  92 SE10      29.55F FOG     WCI  27
OLIVIA         CLOUDY    34  34 100 S7        29.55F FOG     WCI  28
PIPESTONE      FOG       37  37 100 S10       29.47F VSB 1/4
WINDOM         CLOUDY    37  37 100 E6        29.53F FOG
WORTHINGTON    CLOUDY    35  35 100 MISG        N/A  FOG
JACKSON        FOG       34  34 100 SE6       29.54F VSB 1   WCI  29
TRACY          CLOUDY    38  38 100 SE9       29.52F FOG
SLAYTON        CLOUDY    35  35 100 SE13      29.52F FOG     WCI  27
$$
MNZ065>067-074>077-082>085-091>093-201900-
   South Central Minnesota

CITY           SKY/WX    TMP DP  RH WIND       PRES   REMARKS
MANKATO        CLOUDY    35  35 100 S10       29.59R FOG     WCI  27
NEW ULM        CLOUDY    36  36 100 S8        29.57F FOG
ST JAMES       CLOUDY    36  36 100 SE7       29.57F FOG
FAIRMONT       CLOUDY    35  34  96 S10       29.56F WCI  27
GLENCOE        CLOUDY    36  37 100 SE6       29.57F FOG
FARIBAULT      CLOUDY    36  36 100 SE9       29.58F FOG
OWATONNA       CLOUDY    36  34  93 SE7       29.58F FOG
WASECA         CLOUDY    34  34 100 S9        29.59F FOG     WCI  26
ALBERT LEA     FOG       36  36 100 S8        29.56F VSB<1/4
$$
MNZ078>079-086>088-094>096-201900-
   Southeast Minnesota

CITY           SKY/WX    TMP DP  RH WIND       PRES   REMARKS
ROCHESTER      FOG       34  34 100 SE8       29.58F VSB 1/4 WCI  27
6HR MIN TEMP:  33; 6HR MAX TEMP:  34;

RED WING       FOG       36  34  93 SE6       29.61S VSB 1/2
STANTON        CLOUDY    37  34  90 S5        29.58F FOG
DODGE CENTER   FOG       34  34 100 CALM      29.57F VSB 1/4
WINONA         FOG       34  34 100 SE5       29.63F VSB 1   WCI  30
AUSTIN         FOG       36  34  93 S6        29.57F VSB 1/4
PRESTON        FOG       34  33  96 SE5       29.59F VSB<1/4 WCI  30
$$
ABBREVIATIONS USED IN REMARKS
   TC - TEMPERATURES IN CELSIUS
  WCI - WIND CHILL INDEX
   HX - HEAT INDEX
  VSB - VISIBILITY
$$



USA.gov is the U.S. government's official web portal to all federal, state and local government web resources and services.